Voltar ao catálogo

STARLINK-31488

AtivoComunicaçõesVLEO
NORAD 59009·PAYLOAD·🇺🇸 United States

Lançado Feb 23, 2024 de Vandenberg Space Force Base

Loading…

Próximas Passagens (próximas 24 horas)

TLE

AtualizadoSource: CelesTrak SupGP

Época: Sep 14, 2026, 20:46 UTC

1 59009C 24036M   26257.86576389  .00032513  00000+0  96084-3 0  2572
2 59009  53.1579 277.8930 0001308  80.1767  96.7014 15.34366441    17

Acompanhe STARLINK-31488 em tempo real com AllMySat

Download on the App Store